[[{"header":{"parameterUnit":"m.s-1","parameterCategory":1,"la1":30.2991,"la2":30.254,"lo1":-89.0895,"lo2":-89.0444,"dy":0.0017,"dx":0.0017,"nx":28,"ny":28,"refTime":"2024-07-20T21:00:00:Z","depth":0,"parameterNumber":2,"parameterNumberName":"U-component_of_WINDS"},"data":[0,0,0,0,0,0,0,0,0,0,0,0,0,0,0,0,0,0,0,0,0,0,0,0,0,0,0,0,0,0,0,0,0,0,0,0,0,0,0,0,0,0,0,0,0,0,0,0,0,0,0,0,0,0,0,0,0,0,3.708,3.7084,0,3.7509,3.7514,3.7519,3.7673,3.7671,3.7669,3.7668,3.811,3.8123,3.8136,0,0,0,0,0,0,0,0,0,0,0,0,0,3.6395,3.6407,3.7079,3.7085,3.709,3.7508,3.7514,3.752,3.7673,3.7671,3.7669,3.7667,3.8106,3.8121,3.8137,0,0,0,0,0,0,0,0,0,0,0,0,0,3.6745,3.641,3.7078,3.7216,3.7233,3.7507,3.7515,3.7522,3.7673,3.7671,3.7669,3.7666,3.81,3.812,3.8139,3.8308,0,0,3.82,3.8208,0,0,0,0,0,0,0,0,3.6725,3.677,3.7191,3.7207,3.7227,3.7535,3.7435,3.7785,3.7674,3.7506,3.7668,3.7665,3.7921,3.7955,3.8041,3.8328,3.8347,3.8201,3.8213,3.8222,3.8227,0,0,0,0,0,0,0,3.67,3.6752,3.7249,3.7197,3.7219,3.7258,3.7306,3.7502,3.7721,3.7521,3.7533,3.7581,3.793,3.8021,3.8052,3.8354,3.8201,3.8218,3.8231,3.8238,3.8804,3.8806,0,0,0,0,0,0,3.6653,3.6731,3.7236,3.7262,3.6965,3.7273,3.7325,3.7438,3.7719,3.776,3.7583,3.7587,3.7989,3.8029,3.8068,3.8285,3.8222,3.824,3.8252,3.88,3.8804,3.8808,0,0,0,0,0,0,3.6637,3.6696,3.7219,3.7,3.707,3.7287,3.7412,3.7448,3.7539,3.7767,3.7807,3.7636,3.7988,3.804,3.8247,3.8302,3.8249,3.8267,3.8797,3.8802,3.8806,3.8718,0,0,0,0,0,0,3.6617,3.669,3.6755,3.7001,3.7081,3.7389,3.7416,3.7458,3.7573,3.7582,3.7827,3.7865,3.7991,3.8217,3.8267,3.8329,3.8283,3.8793,3.8799,3.8804,3.8717,3.8719,3.8721,0,0,0,0,0,3.6592,3.6713,3.6757,3.6817,3.7167,3.7392,3.7438,3.7579,3.7577,3.7645,3.7791,3.7857,3.8288,3.8237,3.8295,3.8363,3.879,3.8797,3.8804,3.8716,3.8719,3.8721,0,0,0,0,0,0,3.6469,3.6748,3.68,3.7004,3.7173,3.7417,3.7507,3.7577,3.7751,3.7752,3.7921,3.7975,3.8169,3.8287,3.8225,3.8542,3.8543,3.8562,3.8457,3.8461,3.8463,3.843,3.8299,0,0,0,0,0,3.6465,3.6623,3.6859,3.7017,3.7099,3.7288,3.7391,3.7486,3.7668,3.774,3.7902,3.8076,3.8252,3.8363,3.8537,3.8736,3.8792,3.8812,3.8813,3.8814,3.8828,3.8943,3.8954,3.8831,3.8831,3.8831,0,0,3.6459,3.6632,3.6721,3.6996,3.7138,3.7299,3.7347,3.7515,3.7637,3.7766,3.7971,3.8096,3.8302,3.8506,3.8603,3.861,3.8875,3.8823,3.8822,3.8836,3.8951,3.8963,3.8973,3.8836,3.8835,3.8834,0,0,3.6531,3.6677,3.6825,3.6966,3.7181,3.7306,3.7341,3.7576,3.7664,3.7872,3.7972,3.8121,3.8419,3.8562,3.8674,3.8802,3.887,3.8854,3.8864,3.8974,3.8984,3.8993,3.9039,3.9054,3.8868,3.8868,3.8867,0,3.6497,3.6743,3.6892,3.7055,3.7174,3.7298,3.745,3.758,3.784,3.792,3.7924,3.8302,3.845,3.8689,3.872,3.8806,3.8853,3.8826,3.897,3.8981,3.8992,3.9038,3.9055,3.8864,3.8865,3.8865,3.8865,0,3.6691,3.686,3.6954,3.7201,3.7331,3.7487,3.7661,3.7774,3.7858,3.7983,3.8195,3.8377,3.859,3.8655,3.8738,3.8907,3.8904,3.8937,3.8942,3.8998,3.9044,3.9063,3.8859,3.8861,3.8862,3.8862,0,0,3.6695,3.7024,3.7055,3.717,3.7417,3.7551,3.7714,3.7922,3.8017,3.8193,3.8334,3.8585,3.8617,3.8744,3.8846,3.8942,3.9033,3.8964,3.8972,3.897,3.923,3.9202,3.922,3.908,3.9084,3.9087,3.9212,0,3.6798,3.7093,3.7233,3.7467,3.7626,3.7748,3.7891,3.8058,3.818,3.8334,3.847,3.8644,3.8674,3.8751,3.8853,3.8999,3.9087,3.8993,3.9213,3.9219,3.9156,3.9244,3.9216,3.9325,3.9231,3.9234,3.9237,0,3.6958,3.7133,3.7382,3.7612,3.7684,3.7809,3.8012,3.8157,3.835,3.8433,3.8575,3.8673,3.8851,3.8844,3.9092,3.9024,3.9124,3.921,3.9218,3.9243,3.923,3.9271,3.9364,3.9379,3.9266,3.9264,3.9262,0,3.6935,3.7233,3.7422,3.7516,3.7788,3.7873,3.7991,3.8182,3.8299,3.8477,3.8555,3.8751,3.8858,3.9009,3.9158,3.9139,3.9392,3.9397,3.9465,3.9461,3.9512,3.9506,3.962,3.9576,3.9576,3.9576,3.9576,0,3.7035,3.7183,3.7415,3.753,3.77,3.7861,3.8025,3.8152,3.8322,3.8465,3.8584,3.8716,3.8905,3.9062,3.9181,3.9368,3.9416,3.9488,3.9517,3.9477,3.9467,3.9543,3.9539,3.9581,3.9579,3.9579,3.9578,0,3.7037,3.7198,3.7412,3.7652,3.7717,3.7831,3.8038,3.8156,3.8284,3.8465,3.8516,3.8719,3.891,3.9074,3.9326,3.9405,3.9598,3.9635,3.9532,3.9548,3.9607,3.9598,3.9773,3.9804,3.9738,3.9739,3.9739,0,3.7089,3.7206,3.7459,3.7564,3.7679,3.7846,3.7966,3.8129,3.8249,3.8479,3.8569,3.8769,3.8937,3.9236,3.9406,3.96,3.9641,3.9689,3.9671,3.9627,3.9642,3.9632,3.9645,3.9689,3.9689,3.9689,3.9689,0,3.7166,3.724,3.7408,3.7604,3.7744,3.7906,3.8072,3.8151,3.8346,3.8476,3.8672,3.8802,3.906,3.9256,3.9469,3.9592,3.9673,3.9693,3.9719,3.9678,3.9614,3.9649,3.9533,3.9688,3.9688,3.9688,3.9688,3.9688,3.7195,3.7304,3.75,3.7683,3.7825,3.7978,3.8101,3.8245,3.8411,3.8633,3.8721,3.8921,3.9114,3.9408,3.9531,3.9691,3.9704,3.9741,3.9751,3.9757,3.975,3.9589,3.9731,3.9731,3.9731,3.9731,3.9732,0,3.7277,3.7409,3.7576,3.7804,3.7949,3.8013,3.8201,3.8318,3.8492,3.8665,3.8828,3.9054,3.9247,3.9432,3.9634,3.9727,3.9769,3.9774,3.9768,3.9796,3.9728,3.9685,3.9737,3.9737,3.9736,3.9736,3.9736,3.9736,3.7336,3.7525,3.7623,3.7884,3.8017,3.8213,3.8315,3.8457,3.8596,3.8843,3.9003,3.9123,3.9302,3.9518,3.9697,3.9747,3.9816,3.9811,3.987,3.9803,3.98,3.9798,3.9758,3.9824,3.9824,3.9925,3.9926,3.9927]},{"header":{"parameterUnit":"m.s-1","parameterCategory":1,"la1":30.2991,"la2":30.254,"lo1":-89.0895,"lo2":-89.0444,"dy":0.0017,"dx":0.0017,"nx":28,"ny":28,"refTime":"2024-07-20T21:00:00:Z","depth":0,"parameterNumber":3,"parameterNumberName":"V-component_of_WINDS"},"data":[0,0,0,0,0,0,0,0,0,0,0,0,0,0,0,0,0,0,0,0,0,0,0,0,0,0,0,0,0,0,0,0,0,0,0,0,0,0,0,0,0,0,0,0,0,0,0,0,0,0,0,0,0,0,0,0,0,0,1.3004,1.3006,0,1.3197,1.32,1.3202,1.3335,1.3336,1.3337,1.3338,1.3534,1.3538,1.3542,0,0,0,0,0,0,0,0,0,0,0,0,0,1.2745,1.2749,1.3003,1.3006,1.3008,1.3197,1.32,1.3202,1.3335,1.3336,1.3337,1.3338,1.3532,1.3537,1.3543,0,0,0,0,0,0,0,0,0,0,0,0,0,1.2889,1.275,1.3003,1.3097,1.3107,1.3196,1.32,1.3203,1.3334,1.3336,1.3337,1.3339,1.3531,1.3537,1.3543,1.3554,0,0,1.3563,1.3566,0,0,0,0,0,0,0,0,1.2881,1.2899,1.3081,1.3091,1.3102,1.3243,1.3181,1.332,1.3334,1.3248,1.3338,1.3339,1.3436,1.345,1.3483,1.3563,1.3571,1.3564,1.3568,1.357,1.3572,0,0,0,0,0,0,0,1.2871,1.2891,1.308,1.3083,1.3096,1.3128,1.3151,1.3208,1.3331,1.3256,1.3266,1.3287,1.3442,1.3477,1.3489,1.3574,1.3563,1.3569,1.3573,1.3576,1.3671,1.367,0,0,0,0,0,0,1.2846,1.2882,1.3074,1.3086,1.2993,1.3132,1.3157,1.3197,1.3331,1.3353,1.3286,1.3292,1.3465,1.3481,1.3496,1.3517,1.357,1.3576,1.358,1.3672,1.3671,1.3669,0,0,0,0,0,0,1.284,1.2862,1.3066,1.2987,1.3015,1.3135,1.3178,1.32,1.3235,1.3354,1.3376,1.3298,1.3467,1.3487,1.3538,1.3526,1.3579,1.3585,1.3674,1.3672,1.367,1.3558,0,0,0,0,0,0,1.2832,1.2859,1.2865,1.2986,1.3019,1.3106,1.3178,1.3202,1.3246,1.3257,1.3372,1.3392,1.3469,1.3528,1.3545,1.3536,1.359,1.3676,1.3673,1.3671,1.3563,1.3553,1.3543,0,0,0,0,0,1.2823,1.2826,1.2865,1.2887,1.3029,1.3105,1.3123,1.3213,1.3244,1.3251,1.3327,1.3388,1.3524,1.3532,1.3552,1.3545,1.3677,1.3674,1.3671,1.3568,1.3555,1.3543,0,0,0,0,0,0,1.27,1.2843,1.2888,1.2931,1.3004,1.3127,1.3138,1.3196,1.3262,1.3269,1.3377,1.3402,1.3442,1.3499,1.3505,1.3561,1.3608,1.3609,1.3523,1.3511,1.3501,1.3487,1.3596,0,0,0,0,0,1.2678,1.2728,1.285,1.2876,1.2911,1.3017,1.3054,1.3116,1.3197,1.3228,1.3309,1.3384,1.3443,1.348,1.3542,1.3572,1.3599,1.3577,1.3566,1.3557,1.3557,1.3576,1.3568,1.3659,1.3659,1.3659,0,0,1.2633,1.2717,1.2742,1.2853,1.2918,1.2967,1.3043,1.3091,1.3128,1.3236,1.3289,1.335,1.3441,1.3481,1.3503,1.353,1.3537,1.3554,1.3545,1.355,1.3572,1.3564,1.3556,1.3657,1.3658,1.3658,0,0,1.2575,1.2644,1.2673,1.2736,1.2833,1.2904,1.291,1.3024,1.3069,1.3124,1.3206,1.325,1.3351,1.3412,1.3456,1.342,1.3479,1.3437,1.3384,1.3402,1.3395,1.3389,1.3376,1.337,1.3436,1.3436,1.3436,0,1.2507,1.2585,1.268,1.2724,1.277,1.287,1.2899,1.2955,1.3066,1.3095,1.3123,1.3251,1.3319,1.3375,1.3366,1.3399,1.3409,1.3425,1.3388,1.3383,1.3379,1.3368,1.3363,1.343,1.3431,1.3432,1.3432,0,1.2496,1.2548,1.2559,1.2665,1.2712,1.2748,1.2848,1.2884,1.2942,1.3009,1.3063,1.3148,1.3228,1.3246,1.3303,1.331,1.3323,1.3368,1.3417,1.3363,1.3354,1.3351,1.3422,1.3424,1.3426,1.3427,0,0,1.2368,1.2525,1.2528,1.2576,1.269,1.2732,1.2771,1.285,1.2879,1.2951,1.2987,1.3069,1.3111,1.3161,1.3226,1.3241,1.3206,1.3285,1.3288,1.3267,1.3218,1.3184,1.3177,1.3246,1.3245,1.3245,1.3211,0,1.2328,1.2406,1.2493,1.254,1.2589,1.2683,1.2718,1.279,1.2854,1.2904,1.2974,1.303,1.3082,1.3112,1.3132,1.3206,1.3198,1.321,1.3279,1.3281,1.3254,1.3173,1.3137,1.31,1.3208,1.3207,1.3207,0,1.2293,1.2361,1.2413,1.2521,1.2545,1.2575,1.2653,1.27,1.2784,1.2829,1.2883,1.2952,1.2998,1.304,1.3104,1.311,1.3144,1.3184,1.3185,1.3195,1.3241,1.318,1.3091,1.3085,1.3203,1.3203,1.3203,0,1.2194,1.2299,1.2344,1.2383,1.251,1.2528,1.2582,1.2667,1.2708,1.2776,1.2804,1.2876,1.2916,1.297,1.3055,1.3079,1.311,1.316,1.3148,1.3145,1.315,1.3149,1.3064,1.3171,1.3171,1.3171,1.3171,0,1.2141,1.2169,1.2301,1.2329,1.2362,1.2461,1.2491,1.2553,1.2628,1.2668,1.2754,1.2789,1.2901,1.2949,1.3016,1.3058,1.3076,1.3113,1.313,1.3105,1.31,1.3129,1.3133,1.317,1.317,1.3171,1.3171,0,1.2037,1.2127,1.2182,1.2297,1.2327,1.2346,1.2445,1.2474,1.2542,1.2592,1.2609,1.2715,1.2777,1.2868,1.2957,1.3002,1.3033,1.3062,1.3005,1.3015,1.2998,1.2998,1.2929,1.2925,1.3033,1.3032,1.3031,0,1.1997,1.2021,1.2139,1.2172,1.2223,1.2275,1.2318,1.2415,1.2456,1.2552,1.2569,1.2637,1.2697,1.2791,1.2875,1.2944,1.2974,1.2945,1.2985,1.2959,1.2974,1.2971,1.2973,1.2936,1.2934,1.2933,1.2932,0,1.1917,1.196,1.2019,1.2092,1.214,1.2202,1.2269,1.2291,1.2402,1.2443,1.2507,1.2553,1.2644,1.271,1.2789,1.2844,1.2906,1.2918,1.2919,1.2894,1.2859,1.2877,1.2979,1.292,1.2921,1.2922,1.2922,1.2923,1.1844,1.1869,1.1956,1.2018,1.2078,1.2137,1.217,1.2242,1.2297,1.2379,1.2432,1.2493,1.2575,1.2688,1.2739,1.2787,1.2814,1.2815,1.2815,1.2814,1.2804,1.2851,1.2802,1.2803,1.2803,1.2804,1.2804,0,1.1768,1.1828,1.1884,1.1974,1.2022,1.2076,1.2152,1.2188,1.2241,1.2312,1.2369,1.2442,1.2506,1.2595,1.2666,1.2687,1.2717,1.2702,1.2702,1.2713,1.2777,1.277,1.2677,1.2677,1.2677,1.2677,1.2677,1.2677,1.1734,1.178,1.1832,1.1907,1.1967,1.2027,1.2066,1.2121,1.2178,1.2256,1.2309,1.2367,1.2445,1.2522,1.2583,1.2608,1.2629,1.2606,1.2638,1.2697,1.2709,1.272,1.2713,1.261,1.2609,1.257,1.257,1.2569]}]]